Home > Weather > Tábor > Past weeks

Flag for Czech Republic Past Weather in Tábor, Czech Republic — Yesterday and Last 2 Weeks

Now
62 °F

Duststorm.


Feels Like: 62 °F
Forecast: 62 / 80 °F
Wind: N/A

Location: Kocelovice

Current Time: Jul 25, 2016 at 8:15:02 AM

Latest Report: Jul 25, 2016 at 7:00 AM


Visibility: 0 mi

Pressure: 30.07 "Hg

Humidity: 100%

Dew Point: 62 °F

Location of TáborLocation

Past Weather in Tábor — Graph

°F

Tábor Temperature Yesterday

Maximum temperature yesterday: 74 °F (at 2:00 PM)
Minimum temperature yesterday: 62 °F (at 4:00 AM)
Average temperature yesterday: 67 °F

High & Low Weather Summary for the Past Weeks

 TemperatureHumidityPressure
High87 °F (Jul 11, 2:00 PM)100% (Jul 17, 6:00 AM)30.30 "Hg (Jul 17, 6:00 AM)
Low48 °F (Jul 15, 3:00 AM)39% (Jul 11, 1:00 PM)29.81 "Hg (Jul 11, 2:00 PM)
Average65 °F77%30.02 "Hg
* Reported Jul 10 6:00 AM — Jul 25 6:00 AM, Tábor, Weather by CustomWeather, © 2016

Note: Actual official high and low records may vary slightly from our data, if they occured in-between our weather recording intervals... More about our weather records

Advertising

Tábor Weather History for the Previous 24 Hours

Scroll right to see more
 ConditionsComfort  
Time TempWeatherWind HumidityBarometerVisibility
6:00 AM
Mon, Jul 25
62 °FDuststorm.N/A100%30.06 "Hg0 mi
5:00 AM62 °FDuststorm.N/A100%30.06 "Hg0 mi
4:00 AM62 °FDuststorm.N/A100%30.06 "Hg0 mi
3:00 AM62 °FDuststorm.N/A100%30.07 "Hg0 mi
2:00 AM62 °FDuststorm.1 mph100%30.08 "Hg0 mi
1:00 AM62 °FDuststorm.2 mph100%30.08 "Hg0 mi
12:00 AM64 °FPassing clouds.No wind100%30.07 "Hg1 mi
11:00 PM
Sun, Jul 24
64 °FDuststorm.2 mph99%30.07 "Hg0 mi
10:00 PM65 °FFog.No wind99%30.06 "Hg1 mi
9:00 PM67 °FFog.1 mph98%30.05 "Hg4 mi
8:00 PM67 °FFog.2 mph97%30.04 "Hg4 mi
7:00 PM70 °FOvercast.N/A85%30.04 "Hg12 mi
6:00 PM70 °FThunderstorms. Overcast.N/A87%30.03 "Hg6 mi
5:00 PM67 °FThunderstorms. Overcast.2 mph98%30.06 "Hg7 mi
4:00 PM69 °FThundershowers. Overcast.5 mph87%30.05 "Hg12 mi
3:00 PM73 °FPartly sunny.3 mph76%30.03 "Hg14 mi
2:00 PM74 °FPartly sunny.N/A64%30.03 "Hg14 mi
1:00 PM74 °FPartly sunny.3 mph69%30.03 "Hg12 mi
12:00 PM71 °FOvercast.N/A78%30.05 "Hg12 mi
11:00 AM69 °FOvercast.N/A86%30.06 "Hg12 mi
10:00 AM68 °FOvercast.1 mph88%30.06 "Hg11 mi
9:00 AM67 °FLow clouds.N/A90%30.04 "Hg7 mi
8:00 AM65 °FLight rain. Low clouds.N/A97%30.06 "Hg7 mi
Weather by CustomWeather, © 2016

See weather overviewHow to use our weather pages